Home > Weather > Antananarivo > Past weeks

Flag for Madagascar Past Weather in Antananarivo, Madagascar — Yesterday and Last 2 Weeks

Now
54 °F

Passing clouds.


Feels Like: 54 °F
Forecast: 52 / 75 °F
Wind: No wind

Location: Antananarivo / Ivato

Current Time: Aug 26, 2016 at 2:59:41 AM

Latest Report: Aug 26, 2016 at 2:00 AM


Visibility: N/A

Pressure: 30.27 "Hg (25.94 "Hg at 1287m altitude)

Humidity: 94%

Dew Point: 52 °F

Location of AntananarivoLocation

Past Weather in Antananarivo — Graph

°F

Antananarivo Temperature Yesterday

Maximum temperature yesterday: 72 °F (at 12:00 PM)
Minimum temperature yesterday: 52 °F (at 4:00 AM)
Average temperature yesterday: 61 °F

High & Low Weather Summary for the Past Weeks

 TemperatureHumidityPressure
High77 °F (Aug 11, 2:00 PM)100% (Aug 12, 1:30 AM)30.42 "Hg (Aug 12, 1:30 AM)
Low46 °F (Aug 14, 5:00 AM)31% (Aug 11, 2:30 PM)30.15 "Hg (Aug 20, 3:00 PM)
Average61 °F72%30.28 "Hg
* Reported Aug 11 2:00 AM — Aug 26 2:00 AM, Antananarivo, Weather by CustomWeather, © 2016

Note: Actual official high and low records may vary slightly from our data, if they occured in-between our weather recording intervals... More about our weather records

Advertising

Antananarivo Weather History for the Previous 24 Hours

Scroll right to see more
 ConditionsComfort  
Time TempWeatherWind HumidityBarometerVisibility
2:00 AM
Fri, Aug 26
54 °FPassing clouds.No wind94%30.27 "HgN/A
1:30 AM55 °FPassing clouds.No wind88%30.30 "HgN/A
1:00 AM54 °FPassing clouds.No wind94%30.30 "HgN/A
12:30 AM54 °FPassing clouds.No wind94%30.30 "HgN/A
12:00 AM54 °FPassing clouds.7 mph94%30.30 "HgN/A
11:30 PM
Thu, Aug 25
54 °FPassing clouds.No wind94%30.30 "HgN/A
11:00 PM54 °FPassing clouds.No wind94%30.30 "HgN/A
10:30 PM55 °FPassing clouds.No wind88%30.30 "HgN/A
10:00 PM57 °FPassing clouds.8 mph88%30.30 "HgN/A
9:30 PM57 °FPassing clouds.No wind88%30.30 "HgN/A
9:00 PM55 °FPassing clouds.No wind94%30.30 "HgN/A
8:30 PM57 °FPassing clouds.No wind82%30.30 "HgN/A
8:00 PM59 °FPassing clouds.3 mph77%30.30 "HgN/A
7:30 PM59 °FPassing clouds.7 mph77%30.30 "HgN/A
7:00 PM61 °FPassing clouds.8 mph72%30.27 "HgN/A
6:30 PM63 °FPassing clouds.9 mph68%30.27 "HgN/A
6:00 PM63 °FPassing clouds.10 mph68%30.27 "HgN/A
5:30 PM66 °FPassing clouds.13 mph52%30.24 "HgN/A
5:00 PM68 °FPassing clouds.10 mph49%30.24 "HgN/A
4:30 PM70 °FPassing clouds.12 mph46%30.24 "HgN/A
4:00 PM72 °FPassing clouds.10 mph44%30.21 "HgN/A
3:30 PM72 °FPassing clouds.12 mph44%30.21 "HgN/A
3:00 PM72 °FPassing clouds.10 mph44%30.21 "HgN/A
2:30 PM72 °FPassing clouds.10 mph44%30.21 "HgN/A
2:00 PM72 °FPassing clouds.10 mph47%30.21 "HgN/A
1:30 PM72 °FPassing clouds.14 mph44%30.24 "HgN/A
1:00 PM72 °FPassing clouds.14 mph47%30.24 "HgN/A
12:30 PM72 °FPassing clouds.13 mph47%30.24 "HgN/A
12:00 PM72 °FPassing clouds.5 mph47%30.24 "HgN/A
11:30 AM70 °FPassing clouds.10 mph46%30.27 "HgN/A
11:00 AM70 °FPassing clouds.9 mph53%30.27 "HgN/A
10:30 AM66 °FPassing clouds.5 mph52%30.30 "HgN/A
10:00 AM64 °FPassing clouds.7 mph56%30.30 "HgN/A
8:30 AM59 °FScattered clouds.9 mph68%30.30 "HgN/A
8:00 AM57 °FPartly sunny.6 mph77%30.30 "HgN/A
7:30 AM54 °FPartly sunny.7 mph82%30.30 "HgN/A
7:00 AM54 °FPartly sunny.No wind82%30.30 "HgN/A
6:30 AM54 °FPartly sunny.No wind82%30.27 "HgN/A
6:00 AM54 °FPassing clouds.No wind82%30.27 "HgN/A
5:30 AM54 °FPassing clouds.No wind82%30.24 "HgN/A
5:00 AM54 °FPassing clouds.7 mph82%30.24 "HgN/A
4:30 AM54 °FPassing clouds.5 mph88%30.24 "HgN/A
4:00 AM52 °FPassing clouds.No wind88%30.24 "HgN/A
3:00 AM54 °FPassing clouds.No wind82%30.24 "HgN/A
2:00 AM54 °FPassing clouds.No wind88%30.24 "HgN/A
Weather by CustomWeather, © 2016

See weather overviewHow to use our weather pages